Showing default

HAWK-7C, 56200

Orbit data source: Space-Track

HAWK-7C, 56200 is a payload satellite owned by HawkEye 360 (US) in SSO that was launched on Sat, 15 Apr 2023 UTC via an FALCON 9 launch vehicle from the Air Force Western Test Range (AFWTR). Payload-class satellites include a variety of spacecraft equipped with specific instruments for various scientific and technological missions. These include communications satellites like Starlink; space stations such as the ISS; scientific satellites like the Hubble; Earth observation satellites from companies like Planet Labs, Umbra, and HawkEye 360; GPS; miniature CubeSats for education and research; and military/defense satellites.

Loading next visibility...
Identifier
56200, 2023-054Y
Orbit
SSO
Country
Flag of USUS
Related business
Manufacturer
UTIAS-SFL
Mission
Operational Commercial Sigint
Bus & Motor
HAWK2G, Unknown motor
Mass
31 kg wet, 30 kg dry
Launch date (UTC)
2023-04-15 (3 years ago)
Launch vehicle
FALCON 9
Launch site
Air Force Western Test Range (AFWTR)
Object type
Payload
Rocket body
Debris
Shape & HBR
Box + 2 Pan, 1.0 m
Radar Cross Section
0.240 m², Medium (>0.1 m² and < 1m²)

Expand to show TLE details & history
Last TLE update: 12 hours ago

TLE from 12 hours ago
0 HAWK-7C
1 56200U 23054Y   26133.12071746  .00003270  00000-0  12617-3 0  9992
2 56200  97.2753  20.3825 0003507 128.2870 231.8685 15.26979697171677
Epoch: 2026-05-13T02:53Z
TLE epoch observation values (Epoch: 2026-05-13T02:53:49.988Z)
Latitude
-0.00004°
Longitude
106.03893°
Altitude
489.438 km
Speed
7.619 km/s
True Right ascension
01h 21m 31s
True Declination
0° 00' 00"
Sunlit
Object was in daylight at epoch
Visualization orbit readout
Latitude
Unknown
Longitude
Unknown
Altitude
Unknown
Speed
Unknown
Apparent Right ascension
Unknown
Apparent Declination
Unknown
Sunlit
N/A
Visualization observer readout
Local Sidereal Time
23:17:22
Azimuth
Unknown
Elevation
Unknown
Doppler factor
Unknown
Orbital elements
Apogee altitude
484.204 km
Perigee altitude
479.392 km
Semi-major axis
6,859.935 km
Eccentricity
0.00035
Inclination
97.2753°
RAAN
20.3825°
Arg. of periapsis
128.287°
True anomaly
231.8369°
Mean anomaly
231.8685°
Eccentric anomaly
231.8527°
Mean motion
3.82 °/min
Orbital period
94.24 mins
BSTAR
0.00012617
Loading maneuver chart data...
Computing Atmospheric mass density...
Loading historical data...
Loading historical data...
Loading historical data...
Loading historical data...
Loading historical data...
Loading historical data...
Loading historical data...

Documentation

Showing up to 5 results
|